Messwerte Onefour

Temperatur

Temperatur
°C
1575604800 21.00 21.00 -7
1575608400 22.00 22.00 -7
1575612000 23.00 23.00 -9
1575615600 0.00 0.00
1575619200 1.00 1.00 -8
1575622800 2.00 2.00 -8
1575626400 3.00 3.00 -8
1575630000 4.00 4.00 -7
1575633600 5.00 5.00 -8
1575637200 6.00 6.00 -8
1575640800 7.00 7.00 -8
1575644400 8.00 8.00 -8
1575648000 9.00 9.00 -8
1575651600 10.00 10.00 -7
1575655200 11.00 11.00 -6
1575658800 12.00 12.00 -6
1575662400 13.00 13.00 -5
1575666000 14.00 14.00
1575669600 15.00 15.00
1575673200 16.00 16.00 -5
1575676800 17.00 17.00 -5
1575680400 18.00 18.00 -5
1575684000 19.00 19.00
1575687600 20.00 20.00 -4

Aktuellste Messwerte

Temperatur
-4 °C
Feuchtigkeit
100 %
Wind
20 km/hWindrichtung: Ost
Messzeit: 6. Dezember 2019, 20.00Datenquelle: METAR

Weitere Messstationen in der Nähe

Messstation Temperatur Entfernung
Havre 1 °C 81 km
Cypress Hills Park -3 °C 91 km
Bow Island -2 °C 91 km
Seven Persons Agdm -2 °C 95 km
Medicine Hat -4 °C 102 km
Bow Island Agdm 1 °C 106 km
Maple Creek -3 °C 113 km

Wind

Windrichtung Böen Mittelwind
° km/h km/h
1575604800 21.00 20.00 - 21.00 80° 20
1575608400 22.00 21.00 - 22.00 90° 20
1575612000 23.00 22.00 - 23.00 90° 20
1575615600 0.00 23.00 - 0.00
1575619200 1.00 0.00 - 1.00 90° 15
1575622800 2.00 1.00 - 2.00 90° 20
1575626400 3.00 2.00 - 3.00 90° 20
1575630000 4.00 3.00 - 4.00 90° 10
1575633600 5.00 4.00 - 5.00 90° 15
1575637200 6.00 5.00 - 6.00 100° 10
1575640800 7.00 6.00 - 7.00 80° 10
1575644400 8.00 7.00 - 8.00 120° 5
1575648000 9.00 8.00 - 9.00 110° 5
1575651600 10.00 9.00 - 10.00 80° 5
1575655200 11.00 10.00 - 11.00 80° 10
1575658800 12.00 11.00 - 12.00 90° 10
1575662400 13.00 12.00 - 13.00 90° 5
1575666000 14.00 13.00 - 14.00
1575669600 15.00 14.00 - 15.00
1575673200 16.00 15.00 - 16.00 130° 5
1575676800 17.00 16.00 - 17.00 100° 5
1575680400 18.00 17.00 - 18.00 80° 15
1575684000 19.00 18.00 - 19.00
1575687600 20.00 19.00 - 20.00 90° 20

Ihre Wetterstation

Fehlt Ihre Wetterstation auf unserem Portal?

Schreiben Sie an network@meteonews.ch

Klima

Wann ist es am wärmsten? Wann regnet es am wenigsten? Unsere Klimadaten geben Auskunft.